Tracking 31032 objects as of 13-Jul-2025
HD Live streaming from Space Station
objects crossing your sky now

STARLINK-34262

Track STARLINK-34262 now!
10-day predictions
STARLINK-34262 is classified as:


NORAD ID: 64688
Int'l Code: 2025-139AA
Perigee: 376.7 km
Apogee: 381.5 km
Inclination: 53.2 °
Period: 92.0 minutes
Semi major axis: 6750 km
RCS: Unknown
Launch date: June 28, 2025
Source: United States (US)
Launch site: AIR FORCE EASTERN TEST RANGE (AFETR)
Your satellite tracking list
Your tracking list is empty




NASA's NSSDC Master Catalog

Two Line Element Set (TLE):
1 64688U 25139AA  25194.85107021 -.00392978  00000-0 -40394-2 0  9999
2 64688  53.1597 160.9100 0003620   3.9161 356.1883 15.65442529  3709
Source of the keplerian elements: AFSPC